This is the latest recevied weather packets stored in our database for station/object W4OTS. If no packets are shown the sender has not sent any weather packets the latest 10 day(s).
| Time | Temp. | Humidity | Pressure | Rain* | Wind** | Luminosity | Snow |
|---|---|---|---|---|---|---|---|
| 1777787234 | 5.56° C | 84% | 1018.7 hPa | 0 mm | - | 0 W/m² | - |
| 1777786931 | 6.11° C | 82% | 1018.7 hPa | 0 mm | - | 0 W/m² | - |
| 1777786629 | 6.67° C | 81% | 1018.6 hPa | 0 mm | - | 0 W/m² | - |
| 1777786327 | 6.67° C | 81% | 1018.6 hPa | 0 mm | - | 0 W/m² | - |
| 1777786023 | 6.67° C | 82% | 1018.6 hPa | 0 mm | - | 0 W/m² | - |
| 1777785720 | 6.67° C | 81% | 1018.6 hPa | 0 mm | - | 0 W/m² | - |
| 1777785415 | 6.67° C | 80% | 1018.6 hPa | 0 mm | - | 0 W/m² | - |
| 1777785113 | 7.22° C | 79% | 1018.5 hPa | 0 mm | - | 0 W/m² | - |
| 1777784809 | 7.22° C | 78% | 1018.7 hPa | 0 mm | - | 0 W/m² | - |
| 1777784506 | 6.67° C | 80% | 1018.8 hPa | 0 mm | - | 0 W/m² | - |
| 1777784204 | 6.67° C | 80% | 1018.2 hPa | 0 mm | - | 0 W/m² | - |
| 1777783901 | 6.67° C | 79% | 1018.4 hPa | 0 mm | - | 0 W/m² | - |
| 1777783597 | 6.67° C | 81% | 1018.5 hPa | 0 mm | - | 0 W/m² | - |
| 1777783295 | 7.22° C | 78% | 1018.2 hPa | 0 mm | - | 0 W/m² | - |
| 1777782991 | 7.22° C | 80% | 1018.3 hPa | 0 mm | - | 0 W/m² | - |
| 1777782688 | 7.22° C | 78% | 1018.1 hPa | 0 mm | - | 0 W/m² | - |
| 1777782385 | 7.22° C | 75% | 1018.1 hPa | 0 mm | - | 0 W/m² | - |
| 1777782081 | 7.22° C | 77% | 1018.2 hPa | 0 mm | - | 0 W/m² | - |
| 1777781777 | 7.78° C | 77% | 1018.1 hPa | 0 mm | - | 0 W/m² | - |
| 1777781475 | 7.78° C | 78% | 1017.8 hPa | 0 mm | - | 0 W/m² | - |
| 1777781172 | 7.78° C | 77% | 1017.9 hPa | 0 mm | - | 0 W/m² | - |
| 1777780870 | 7.78° C | 74% | 1017.7 hPa | 0 mm | - | 0 W/m² | - |
| 1777780566 | 7.78° C | 74% | 1017.7 hPa | 0 mm | - | 0 W/m² | - |
| 1777780264 | 7.78° C | 70% | 1017.9 hPa | 0 mm | - | 0 W/m² | - |
| 1777779961 | 7.78° C | 70% | 1017.7 hPa | 0 mm | - | 0 W/m² | - |
* Rain latest hour (hover to see other rain measurements)
** Current wind speed in m/s (hover to see current wind gust speed)